Regional Weather Roundup
Issued by NWS State College, PA

Home | Current Version | Previous Version | Graphics & Text | Print | Product List | Glossary Off
Versions: 1 2 3 4 5 6 7 8 9 10 11 12 13 14 15 16 17 18 19 20 21 22 23 24 25 26 27 28 29 30 31 32 33 34 35 36 37 38 39 40 41 42 43 44 45 46 47 48 49 50

730
ASUS41 KCTP 071703
RWRCTP

REGIONAL WEATHER ROUNDUP
NATIONAL WEATHER SERVICE STATE COLLEGE PA
1200 PM EST WED DEC 07 2016

Note: "fair" indicates few or no clouds below 12,000 feet with no
significant weather and/or obstructions to visibility.

* = STATION THAT DOES NOT REPORT PRECIPITATION /E.G. RAIN...SNOW...ETC/
    THUNDER OR FOG.

PAZ002>004-007>009-013>016-020>023-029>032-071800-
WESTERN PENNSYLVANIA

CITY           SKY/WX    TMP DP  RH WIND       PRES   REMARKS
ERIE           CLOUDY    37  25  61 SW15G26   30.02F
MEADVILLE      MOSUNNY   33  24  69 SW9       30.00F
FRANKLIN*        N/A     36  25  64 SW10      30.02S
NEW CASTLE     FAIR      36  25  64 SW9       30.06F
BEAVER COUNTY  SUNNY     37  27  65 SW7       30.06F
BUTLER*        SUNNY     37  25  60 W10G17    30.07F
PITTSBURGH INT MOSUNNY   38  27  64 SW12      30.06F
PITTSBURGH     MOSUNNY   37  24  59 W14       30.05F
INDIANA*       SUNNY     39  28  65 W9G16     30.05S
LATROBE        PTSUNNY   37  28  70 W13       30.07F
WASHINGTON CO* SUNNY     37  27  65 SW9G16    30.08F
$$

PAZ004>006-010>012-017>019-024>028-033>037-041-042-045-046-049>053-071800-
CENTRAL PENNSYLVANIA

CITY           SKY/WX    TMP DP  RH WIND       PRES   REMARKS
BRADFORD       MOSUNNY   33  25  72 W9        29.94F
DUBOIS         SUNNY     37  26  64 SW16      29.98F
CLEARFIELD     SUNNY     41  28  60 W12       29.99F
JOHNSTOWN      SUNNY     36  25  64 W16       29.97F
ALTOONA        SUNNY     40  29  64 W10       30.00F
STATE COLLEGE  MOSUNNY   41  30  65 W12       29.98F
WILLIAMSPORT   MOSUNNY   46  32  58 W9G20     29.98F
SELINSGROVE    SUNNY     45  32  60 W12G21    30.01S
FT INDIANTOWN  PTSUNNY   46  35  65 VRB6G17   29.99F
CAPITAL CITY   MOSUNNY   46  31  55 NW10      30.00F
HARRISBURG     PTSUNNY   45  35  68 NW9       30.00F
YORK           MOSUNNY   45  35  68 NW10      30.01F
$$

PAZ038>040-043-044-047-048-054-055-060>062-067>071-071800-
EASTERN PENNSYLVANIA

CITY           SKY/WX    TMP DP  RH WIND       PRES   REMARKS
SCRANTON       CLOUDY    40  36  86 SW6       29.95F
MOUNT POCONO   CLOUDY    37  33  85 W6        29.90F
ALLENTOWN      PTSUNNY   44  38  79 CALM      29.97F
QUAKERTOWN*    CLOUDY    43  37  81 NW5       29.99S
READING        PTSUNNY   44  38  79 W8        29.98S
LANCASTER      CLOUDY    45  40  82 NW10      30.00S
COATESVILLE    CLOUDY    43  37  81 N8        29.99F
POTTSTOWN      CLOUDY    43  39  86 NW6       29.99F
BLUE BELL      CLOUDY    41  37  87 CALM      29.97F
DOYLESTOWN     CLOUDY    45  41  86 W6        29.97F
WILLOW GROVE   NOT AVBL
NORTH PHILA    CLOUDY    45  39  79 NW6       30.00F
PHILADELPHIA   CLOUDY    46  39  76 NW10      29.99F
$$




USA.gov is the U.S. government's official web portal to all federal, state and local government web resources and services.